# Land Stadt Wetter Temperatur Luftdruck Luftfeuchtigkeit Sichtweite Windgeschwindigkeit Windrichtung Ortszeit
1 ad Andorra la Vella Clouds 2 1011 49 0 6 18 02.08.2018 14:22
2 ae Dubai Clear 15 1019 63 10000 9 90 02.08.2018 14:21
3 af Kabul Clear -4 1015 58 6000 9 330 02.08.2018 14:21
4 ar Esquel Clouds 15 1014 41 10000 22 280 02.08.2018 14:22
5 ar Buenos Aires Clear 29 1007 45 10000 15 350 02.08.2018 14:22
6 ar Ushuaia Drizzle 8 990 87 9000 57 230 02.08.2018 14:22
7 at Wien Clouds 3 1003 65 10000 39 290 02.08.2018 14:22
8 at Innsbruck Clouds 2 1007 74 10000 21 240 02.08.2018 14:23
9 au Darwin Clouds 29 1005 79 10000 21 270 02.08.2018 14:22
10 au Perth Clear 19 1009 77 10000 15 210 02.08.2018 14:21
11 au Sydney Clouds 23 1015 83 10000 26 190 02.08.2018 14:22
12 au Alice Springs Clouds 28 1010 45 10000 11 150 02.08.2018 14:21
13 bg Warna Clear 4 1011 86 10000 9 10 02.08.2018 14:21
14 bg Sofia Clouds 1 1010 80 10000 9 120 02.08.2018 14:21
15 bo La Paz Clouds 17 1034 81 10000 18 290 02.08.2018 14:22
16 bo Potisi Clouds 15 1007 30 0 22 249 02.08.2018 14:22
17 br Manaus Clouds 29 1008 74 10000 9 60 02.08.2018 14:21
18 br Rio de Janeiro Clouds 28 1010 88 10000 18 180 02.08.2018 14:22
19 bs Nassau Clouds 24 1012 73 10000 15 330 02.08.2018 14:22
20 ca Montreal Clouds -1 1011 68 14484 11 290 02.08.2018 14:22
21 cd Kisangani Clouds 24 1011 47 0 6 183 02.08.2018 14:23
22 ch Bern Clouds 4 1010 60 10000 15 210 02.08.2018 14:23
23 ch Andermatt Clouds 1 1009 52 0 22 300 02.08.2018 14:23
24 ck Avarua Rain 28 1013 83 10000 13 60 02.08.2018 14:22
25 cl Santiago Dust 30 1011 35 8000 39 220 02.08.2018 14:23
26 cn Lhasa Clear -11 1016 26 0 10 36 02.08.2018 14:22
27 cn Peking Mist 1 1026 74 4000 4 0 02.08.2018 14:23
28 cn Shanghai Clouds 5 1023 75 6000 14 290 02.08.2018 14:21
29 de Hiddensee Rain 3 992 89 0 2 292 02.08.2018 14:21
30 de Berlin Clouds 4 993 75 10000 30 250 02.08.2018 14:21
31 de Torfhaus Clouds 4 995 69 10000 35 260 02.08.2018 14:22
32 de Frankfurt Clouds 2 1003 74 10000 21 190 02.08.2018 14:22
33 de München Snow 2 1006 81 10000 24 270 02.08.2018 14:21
34 de Köln Clouds 4 1001 69 10000 18 220 02.08.2018 14:21
35 de Stuttgart Clouds 2 1006 74 10000 5 180 02.08.2018 14:22
36 de Kassel Clouds 3 998 96 10000 30 230 02.08.2018 14:21
37 de Emden Clouds 3 992 80 10000 28 250 02.08.2018 14:21
38 de Magdeburg Clear 4 995 76 0 42 247 02.08.2018 14:22
39 de Bremen Clouds 4 994 80 10000 35 250 02.08.2018 14:22
40 de Nürnberg Clouds 2 1004 74 10000 24 250 02.08.2018 14:21
41 de Trier Clouds 2 1001 88 10000 18 210 02.08.2018 14:21
42 de Freiburg Clouds 4 1007 93 10000 17 230 02.08.2018 14:22
43 de Hannover Clouds 4 995 75 10000 33 260 02.08.2018 14:21
44 de Flensburg Rain 4 987 93 0 30 300 02.08.2018 14:21
45 de Helgoland Clouds 4 992 86 8000 26 270 02.08.2018 14:22
46 de Dresden Clouds 3 997 69 10000 22 250 02.08.2018 14:22
47 de Hamburg Snow 2 991 78 3000 18 270 02.08.2018 14:21
48 de Braunschweig Clouds 4 995 69 10000 35 260 02.08.2018 14:21
49 de Oberstdorf Clouds 1 1009 94 10000 13 250 02.08.2018 14:21
50 do Santo Domingo Clouds 28 1012 66 10000 18 180 02.08.2018 14:21
51 ec San Cristobal Clouds 29 1010 74 10000 17 180 02.08.2018 14:22
52 eg Kairo Clear 12 1021 62 6000 11 170 02.08.2018 14:22
53 es Madrid Clouds 11 1023 93 10000 9 200 02.08.2018 14:23
54 es Barcelona Clouds 11 1019 76 10000 5 330 02.08.2018 14:22
55 es Sevilla Clouds 15 1026 82 10000 11 200 02.08.2018 14:22
56 es Tarifa Clouds 14 1026 93 10000 4 80 02.08.2018 14:21
57 es Palma de Mallorca Clouds 14 1021 82 10000 13 220 02.08.2018 14:22
58 es Las Palmas de Gran Canaria Clear 17 1022 67 10000 8 10 02.08.2018 14:21
59 et Addis Abeba Clouds 15 1028 82 10000 22 60 02.08.2018 14:23
60 fi Helsinki Drizzle 2 999 100 10000 13 130 02.08.2018 14:21
61 fi Rovaniemi Snow -11 1003 85 8000 21 80 02.08.2018 14:21
62 fj Suva Clouds 27 1011 88 10000 8 200 02.08.2018 14:21
63 fr Nizza Clear 12 1010 50 10000 18 260 02.08.2018 14:22
64 fr Paris Clouds 5 1006 81 10000 28 260 02.08.2018 14:22
65 fr Bordeaux Clouds 9 1018 81 10000 13 240 02.08.2018 14:21
66 gb Glasgow Rain 4 991 86 10000 30 240 02.08.2018 14:21
67 gb London Clear 3 999 63 10000 21 250 02.08.2018 14:22
68 gb Manchester Clouds 5 997 80 10000 18 230 02.08.2018 14:21
69 gl Nuuk Clouds -12 997 72 10000 21 70 02.08.2018 14:22
70 gr Athen Clouds 11 1015 71 10000 4 0 02.08.2018 14:22
71 id Jakarta Haze 25 1010 83 5000 2 112 02.08.2018 14:22
72 ie Dublin Clouds 3 998 86 10000 26 250 02.08.2018 14:21
73 in Mumbai Haze 24 1014 64 3000 8 320 02.08.2018 14:22
74 in Nagpur Haze 18 1014 63 4000 7 31 02.08.2018 14:21
75 in Jagatsukh Snow -1 1018 98 0 5 14 02.08.2018 14:22
76 iq Bagdad Clouds 9 1019 76 8000 9 110 02.08.2018 14:22
77 is Reykjavik Clouds -2 986 80 10000 11 50 02.08.2018 14:22
78 it Palermo Clouds 12 1020 72 10000 28 220 02.08.2018 14:22
79 it Mailand Clouds 5 1007 87 6000 9 240 02.08.2018 14:21
80 it Rom Clouds 12 1013 82 10000 13 170 02.08.2018 14:23
81 jp Nagasaki Clouds 10 1014 87 0 14 330 02.08.2018 14:21
82 jp Tokio Rain 9 1002 93 10000 35 320 02.08.2018 14:22
83 ke Nairobi Clouds 16 1023 93 10000 11 20 02.08.2018 14:22
84 kr Seoul Clouds 0 1017 92 10000 4 20 02.08.2018 14:21
85 ma Marrakesch Clear 14 1025 35 10000 8 260 02.08.2018 14:23
86 ma Casablanca Clear 13 1026 93 10000 8 40 02.08.2018 14:23
87 mg Antananarivo Thunderstorm 20 1018 94 10000 2 0 02.08.2018 14:21
88 mn Ulaanbaatar Clear -22 1022 83 10000 4 0 02.08.2018 14:23
89 mn Uliastai Clouds -16 1029 63 0 12 132 02.08.2018 14:23
90 mv Male Clouds 28 1013 74 10000 22 70 02.08.2018 14:23
91 mx Veracruz Clouds 28 1008 69 8047 13 140 02.08.2018 14:21
92 mx Mexiko Stadt Clouds 23 1021 8 19312 15 110 02.08.2018 14:21
93 no Hammerfest Clouds -8 1007 72 10000 63 130 02.08.2018 14:22
94 no Oslo Snow 1 985 97 6000 17 20 02.08.2018 14:23
95 nz Wellington Drizzle 17 1010 93 8000 33 360 02.08.2018 14:23
96 pe Cusco Clouds 19 1026 45 10000 18 270 02.08.2018 14:23
97 pg Port Moresby Clouds 24 1007 100 10000 13 320 02.08.2018 14:21
98 ph Manila Clouds 24 1011 88 8000 3 19 02.08.2018 14:21
99 pt Lissabon Rain 15 1025 93 10000 15 220 02.08.2018 14:22
100 qa Doha Clear 15 1020 67 10000 8 330 02.08.2018 14:23
101 ru Surgut Clouds -27 1010 75 10000 18 290 02.08.2018 14:23
102 ru Werchojansk Clear -37 1029 66 0 4 87 02.08.2018 14:22
103 ru Anadyr Snow -17 1022 84 10000 4 190 02.08.2018 14:23
104 ru Moskau Snow -2 1009 92 3000 11 90 02.08.2018 14:22
105 ru Jakutsk Fog -41 1036 57 200 4 320 02.08.2018 14:22
106 ru Amderma Clouds -21 1017 97 0 13 315 02.08.2018 14:23
107 sa Riad Clear 10 1021 46 10000 4 150 02.08.2018 14:21
108 sb Honiara Clouds 25 1008 94 10000 3 237 02.08.2018 14:22
109 se Stockholm Rain 4 990 93 7000 22 110 02.08.2018 14:23
110 th Bangkok Clouds 26 1011 83 10000 14 193 02.08.2018 14:21
111 tr Ankara Fog 3 1014 100 400 4 0 02.08.2018 14:23
112 tr Istanbul Mist 8 1015 100 4000 2 0 02.08.2018 14:23
113 tr Alanya Clouds 8 1018 81 6000 13 250 02.08.2018 14:22
114 ua Kiew Fog -1 1007 90 550 11 140 02.08.2018 14:21
115 us Death Valley Clouds 18 1022 23 0 6 73 02.08.2018 14:22
116 us Fairbanks Clouds -32 1002 73 16093 6 23 02.08.2018 14:23
117 us Chicago Clouds 0 1019 81 16093 4 337 02.08.2018 14:23
118 us Denver Clear 7 1017 18 16093 6 71 02.08.2018 14:21
119 us Miami Clouds 24 1012 57 16093 15 70 02.08.2018 14:23
120 us Las Vegas Clear 16 1022 25 16093 5 13 02.08.2018 14:21
121 us Honolulu Clouds 25 1021 61 16093 8 310 02.08.2018 14:22
122 us Nome Clear -29 1012 75 16093 8 50 02.08.2018 14:23
123 us New York Clouds 4 1011 52 16093 18 320 02.08.2018 14:22
124 us Tucson Clear 18 1019 20 16093 6 348 02.08.2018 14:21
125 us Los Angeles Clear 22 1021 25 16093 5 250 02.08.2018 14:22
126 uy Montevideo Clear 27 1008 37 10000 18 20 02.08.2018 14:22
127 vn Hanoi Rain 14 1021 62 10000 9 10 02.08.2018 14:21
128 za Kapstadt Clouds 20 1017 88 10000 11 150 02.08.2018 14:22